This demonstration page uses our WeatherBlox Daily Observations layout. Learn more.

Left ArrowRight Arrow

38.20091, -84.87328

Hourly Observations for October 26, 2020

Temp ( °F °C ) Dew Point ( °F °C ) Humidity (%) Winds ( mph kmh ) Pressure ( in mb ) Visibility ( mi km ) Precip ( " mm )
12:05 am 00:05 Cloudy 51 10.6 48 8.9 89 89 Calm 30.04 1017 10 16 0.00 0.00
12:46 am 00:46 Cloudy 51 10.6 48 8.9 89 89 Calm 30.04 1017 10 16 0.00 0.00
12:53 am 00:53 Cloudy 51 10.6 48 8.9 89 89 Calm 30.03 1017 10 16 0.00 0.00
1:53 am 01:53 Cloudy 51 10.6 48 8.9 89 89 Calm 30.03 1017 9 14 0.00 0.00
2:53 am 02:53 Cloudy 51 10.6 48 8.9 89 89 WNW 3 6 30.05 1018 10 16 0.00 0.00
3:24 am 03:24 Cloudy 51 10.6 48 8.9 89 89 NW 3 6 30.06 1018 10 16 0.00 0.00
3:53 am 03:53 Cloudy 51 10.6 48 8.9 89 89 Calm 30.04 1017 10 16 0.00 0.00
4:01 am 04:01 Cloudy 51 10.6 48 8.9 89 89 Calm 30.05 1018 10 16 0.00 0.00
4:53 am 04:53 Cloudy 51 10.6 48 8.9 89 89 NW 3 6 30.06 1018 10 16 0.00 0.00
5:02 am 05:02 Cloudy 51 10.6 48 8.9 89 89 Calm 30.07 1018 10 16 0.00 0.00
5:53 am 05:53 Cloudy 51 10.6 48 8.9 89 89 Calm 30.06 1018 10 16 0.00 0.00
6:53 am 06:53 Cloudy 51 10.6 48 8.9 89 89 WNW 5 7 30.09 1019 10 16 0.00 0.00
7:53 am 07:53 Cloudy 52 11.1 48 8.9 86 86 Calm 30.11 1020 8 13 0.00 0.00
8:40 am 08:40 Cloudy 52 11.1 48 8.9 86 86 Calm 30.12 1020 9 14 0.00 0.00
8:50 am 08:50 Cloudy 52 11 48 9 88 88 Calm 30.12 1020 10 16 0.00 0.00
8:53 am 08:53 Cloudy 52 11.1 49 9.4 89 89 Calm 30.11 1020 10 16 0.00 0.00
9:04 am 09:04 Cloudy 52 11.1 48 8.9 86 86 Calm 30.13 1020 10 16 0.00 0.00
9:21 am 09:21 Cloudy 52 11.1 48 8.9 86 86 WNW 3 6 30.13 1020 10 16 0.00 0.00
9:53 am 09:53 Cloudy 53 11.7 48 8.9 83 83 WNW 6 9 30.13 1020 10 16 0.00 0.00
10:53 am 10:53 Cloudy with Mist and Fog 53 11.7 49 9.4 86 86 WNW 3 6 30.15 1021 6 10 0.00 0.00
11:53 am 11:53 Cloudy 54 12.2 48 8.9 80 80 W 7 11 30.15 1021 10 16 0.00 0.00
12:53 pm 12:53 Cloudy 55 12.8 49 9.4 80 80 VRB 3 6 30.15 1021 10 16 0.00 0.00
1:53 pm 13:53 Cloudy 55 12.8 48 8.9 77 77 W 6 9 30.14 1021 10 16 0.00 0.00
2:53 pm 14:53 Cloudy 55 12.8 47 8.3 74 74 WNW 6 9 30.14 1021 10 16 0.00 0.00
3:24 pm 15:24 Cloudy 54 12.2 48 8.9 80 80 NNW 7 11 30.14 1021 10 16 0.00 0.00
3:53 pm 15:53 Cloudy 54 12.2 47 8.3 77 77 NNW 5 7 30.13 1020 10 16 0.00 0.00
4:44 pm 16:44 Cloudy 53 11.7 47 8.3 80 80 NW 5 7 30.15 1021 10 16 0.00 0.00
4:53 pm 16:53 Cloudy 54 12.2 47 8.3 77 77 NW 5 7 30.15 1021 10 16 0.00 0.00
5:53 pm 17:53 Cloudy 53 11.7 46 7.8 77 77 NW 6 9 30.18 1022 10 16 0.00 0.00
6:53 pm 18:53 Cloudy 52 11.1 46 7.8 80 80 NNW 8 13 30.18 1022 10 16 0.00 0.00
7:53 pm 19:53 Cloudy 51 10.6 46 7.8 83 83 NNW 7 11 30.22 1023 10 16 0.00 0.00
8:33 pm 20:33 Cloudy 51 10.6 46 7.8 83 83 NNW 8 13 30.24 1024 10 16 0.00 0.00
8:53 pm 20:53 Cloudy 50 10 45 7.2 83 83 N 7 11 30.22 1023 10 16 0.00 0.00
9:06 pm 21:06 Cloudy 50 10 46 7.8 86 86 N 6 9 30.23 1024 10 16 0.00 0.00
9:42 pm 21:42 Cloudy 50 10 45 7.2 83 83 N 7 11 30.24 1024 9 14 0.00 0.00
9:53 pm 21:53 Cloudy 50 10 45 7.2 83 83 N 6 9 30.24 1024 9 14 0.00 0.00
10:53 pm 22:53 Cloudy 50 10 45 7.2 83 83 NNW 6 9 30.26 1025 10 16 0.00 0.00
11:13 pm 23:13 Cloudy 50 10 45 7.2 83 83 N 5 7 30.27 1025 10 16 0.00 0.00
11:46 pm 23:46 Cloudy 50 10 45 7.2 83 83 ENE 3 6 30.26 1025 10 16 0.00 0.00
11:53 pm 23:53 Cloudy 49 9.4 45 7.2 86 86 E 5 7 30.24 1024 10 16 0.00 0.00

Powered by AerisWeather